Welcome to the New NWS' Forecast!
Most changes are behind the scenes, but click here for differences you might notice.
Latest weather observations around

Bremerton, Bremerton National Airport (KPWT)

Using English Units (Switch to International System of Units)
Date/ Time (PDT) Wind (mph) Vis. (mi) Weather Sky Cond. Temp (°F) Rel. Humidity Wind Chill (°F) Heat Index (°F) Pressure Precip. (in)
Air Dwpt 6 hour Altimeter (inHg) Sea level (inHg) 1 hr 3 hr 6 hr
Max Min
Sep 22 01:56 S 6 10 Cloudy FEW008 OVC017 57 56     96%     29.85 29.89 0 0  
Sep 22 01:29 SSW 7 10 Light Rain FEW008 BKN015 OVC021 57 55     94%     29.85   0    
Sep 22 01:19 SSW 11 10 Light Rain SCT010 OVC015 57 55     94%     29.85   0    
Sep 22 00:56 SSW 7 10 Cloudy FEW006 BKN013 OVC055 57 55     93%     29.84 29.88 0    
Sep 22 00:45 SSW 8 10 Cloudy FEW006 BKN011 OVC055 57 55     94%     29.84        
Sep 22 00:09 SSW 8 10 Mostly Cloudy SCT009 BKN055 55 55     100%     29.84        
Sep 21 23:56 SSW 8 10 Mostly Cloudy BKN009 BKN022 56 55     97%     29.84 29.88 0    
Sep 21 23:40 SSW 11 10 Cloudy BKN007 BKN011 OVC022 57 55     94%     29.85   0    
Sep 21 22:56 SSW 10 10 Light Rain OVC005 57 56     96%     29.84 29.89 0   0
Sep 21 22:35 SW 9 3 Light Rain and Fog/Mist BKN005 BKN011 OVC022 57 55     94%     29.84   0    
Sep 21 22:29 SSW 10 4 Light Rain and Fog/Mist SCT007 BKN011 OVC030 57 55     94%     29.85   0    
Sep 21 21:56 SSW 14 10 Light Rain BKN026 OVC030 58 56     93%     29.85 29.89 0    
Sep 21 21:38 SSW 10 10 Light Rain OVC028 57 55     94%     29.85   0    
Sep 21 20:56 SSW 10 10 Light Rain OVC037 59 56     90%     29.86 29.91 0    
Sep 21 18:56 SW 8 10 Partly Cloudy SCT050 60 56     86%     29.85   0    
Sep 21 17:56 SW 7 10 Light Rain FEW090 61 56     83%     29.85 29.89 0    
Sep 21 16:56 SW 13 10 Mostly Clear FEW044 66 54     65%     29.88 29.93      
Sep 21 15:56 WSW 11 10 Cloudy OVC042 69 55     61%     29.89 29.93      
Sep 21 14:56 SW 13 10 Partly Cloudy SCT042 69 54     59%     29.9        
Sep 21 13:56 SW 14 10 Mostly Clear FEW032 68 54     61%     29.91        
Sep 21 12:56 SSW 13 10 Mostly Cloudy BKN047 68 56     65%     29.93 29.97      
Sep 21 11:56 S 11 10 Mostly Clear FEW017 67 56     68%     29.95 29.99      
Sep 21 10:19 SSW 9 10 Partly Cloudy SCT012 61 54     77%     29.97        
Sep 21 09:56 7 10 Mostly Cloudy BKN012 60 52     75%     29.98 30.03      
Sep 21 08:56 SSW 8 10 Cloudy OVC012 58 51     78%     29.99        
Sep 21 07:56 SW 6 10 Cloudy OVC012 57 50     77%     29.99        
Sep 21 06:56 S 9 10 Cloudy OVC012 56 49     77%     30        
Sep 21 06:24 S 8 10 Mostly Cloudy BKN014 BKN044 55 48     77%     30        
Sep 21 05:56 S 7 10 Mostly Cloudy BKN046 56 50     80%     30 30.04      
Sep 21 05:38 S 10 10 Mostly Cloudy FEW009 BKN048 55 50     82%     30        
Sep 21 05:18 S 9 10 Partly Cloudy SCT011 55 50     82%     30.01        
Sep 21 05:05 S 11 10 Mostly Cloudy BKN011 55 48     77%     30.01        
Sep 21 04:52 S 11 10 Partly Cloudy SCT011 55 48     77%     30.01        
Sep 21 03:56 S 11 10 Cloudy OVC013 57 50     77%     30.02 30.06      
Sep 21 02:56 S 8 10 Cloudy OVC013 57 50     77%     30.03        
Sep 21 01:56 S 7 10 Cloudy OVC015 56 51     84%     30.04        
Sep 21 00:56 S 7 10 Cloudy SCT017 OVC024 55 51     86%     30.06        
Sep 21 00:45 S 7 10 Mostly Cloudy BKN024 BKN032 55 52     88%     30.06        
Sep 21 00:20 SSW 7 10 Cloudy OVC030 55 52     88%     30.07        
Sep 20 23:56 SSW 9 10 Cloudy OVC026 57 51     81%     30.07        
Sep 20 23:39 SSW 8 10 Cloudy OVC026 57 52     82%     30.07        
Sep 20 21:56 SSW 8 10 Cloudy OVC038 57 51     81%     30.08        
Sep 20 20:56 S 7 10 Cloudy OVC042 57 51     81%     30.09        
Sep 20 19:56 SSW 7 10 Mostly Cloudy BKN044 58 50     75%     30.1        
Sep 20 17:56 WSW 14 10 Cloudy OVC050 62 48     60%     30.1        
Sep 20 15:56 SW 14 10 Cloudy OVC065 66 47     50%     30.11 30.16      
Sep 20 14:56 3 10 Cloudy SCT031 OVC070 63 49     60%     30.12 30.16      
Sep 20 13:42 SSW 8 10 Mostly Cloudy SCT022 BKN080 61 48     63%     30.13        
Sep 20 12:56 7 10 Cloudy OVC018 59 50     72%     30.14        
Sep 20 11:56 3 10 Cloudy SCT010 OVC019 57 50     77%     30.16        
Sep 20 10:56 S 6 10 Cloudy OVC010 55 51     86%     30.17        
Sep 20 10:30 3 10 Cloudy OVC012 55 50     82%     30.17        
Sep 20 09:56 S 5 10 Cloudy BKN009 OVC013 54 51     90%     30.17        
Sep 20 09:25 Calm 10 Cloudy OVC009 54 52     94%     30.17        
Sep 20 08:56 3 10 Cloudy OVC005 53 52     96%     30.16        
Sep 20 08:33 Calm 10 Cloudy BKN005 OVC039 54 52     94%     30.16        
Sep 20 07:56 Calm 10 Cloudy BKN003 OVC039 52 51     97%     30.15        
Sep 20 07:47 Calm 10 Cloudy BKN003 BKN037 OVC050 52 52     100%     30.16        
Sep 20 07:36 Calm 10 Cloudy SCT005 BKN037 OVC050 52 52     100%     30.16        
Sep 20 07:28 Calm 10 Cloudy FEW025 BKN037 OVC050 52 52     100%     30.15        
Sep 20 06:56 Calm 10 Cloudy SCT003 BKN025 OVC036 52 51     97%     30.15 30.2      
Sep 20 05:56 Calm 10 Cloudy BKN003 OVC027 52 51     97%     30.13 30.18      
Sep 20 05:44 Calm 10 Cloudy BKN005 OVC027 52 52     100%     30.13        
Sep 20 05:13 Calm 10 Cloudy SCT005 OVC027 54 52     94%     30.13        
Sep 20 04:40 Calm 10 Cloudy SCT007 OVC027 54 52     94%     30.11   0    
Sep 20 03:56 Calm 10 Cloudy BKN007 OVC023 53 52     96%     30.11   0    
Sep 20 03:16 E 3 10 Clear   55 52     88%     30.1        
Sep 20 03:13 Calm 10 Clear   55 52     88%     30.1        
Sep 20 02:56 ENE 3 10 Clear   55 51     86%     30.09 30.14 0    
Sep 20 01:56 Calm 10 Cloudy BKN017 BKN024 OVC037 55 50     83%     30.1 30.14      
Sep 20 00:56 N 3 10 Cloudy SCT021 OVC027 56 52     87%     30.1 30.14      
Sep 20 00:26 Calm 10 Cloudy BKN023 OVC035 54 52     94%     30.09        
Sep 19 23:56 ESE 3 10 Cloudy OVC031 55 52     89%     30.09 30.14      
Sep 19 21:56 ENE 3 10 Cloudy BKN049 OVC090 57 47     69%     30.09        
Sep 19 20:56 Calm 10 Cloudy FEW019 OVC050 58 52     81%     30.09 30.14      
Sep 19 20:24 Calm 10 Cloudy SCT022 OVC050 57 52     82%     30.08        
Sep 19 20:11 Calm 10 Cloudy BKN024 OVC050 57 52     82%     30.08        
Sep 19 18:56 SSW 3 10 Cloudy BKN050 OVC070 61 52     72%     30.06   0    
Sep 19 17:56 SW 10 10 Cloudy FEW060 BKN075 OVC100 62 52     70%     30.06 30.11      
Sep 19 16:56 SW 7 10 Mostly Cloudy BKN090 65 49     56%     30.05 30.1      
Sep 19 15:56 W 10 10 Mostly Clear FEW040 67 48     51%     30.05        
Sep 19 14:56 SW 6 10 Clear CLR 66 48     52%     30.07        
Sep 19 13:56 SSW 7 10 Clear CLR 64 47     54%     30.08        
Sep 19 12:56 SW 7 10 Clear CLR 63 43     48%     30.08        
Sep 19 11:56 S 8 10 Partly Cloudy SCT041 62 45     53%     30.1        
Sep 19 10:56 SW 6 10 Clear CLR 61 45     56%     30.11 30.16      
Sep 19 09:56 5 10 Clear CLR 58 45     62%     30.11        
Sep 19 08:56 Calm 10 Mostly Clear FEW041 52 46     80%     30.11        
Sep 19 07:56 Calm 10 Partly Cloudy SCT041 43 42     97%     30.11        
Sep 19 07:11 Calm 10 Clear CLR 39 39     100%     30.1        
Sep 19 06:56 Calm 2.5 Fog/Mist CLR 39 38     96%     30.1        
Sep 19 05:56 Calm 10 Clear CLR 40 38     93%     30.09        
Sep 19 03:56 Calm 10 Clear CLR 43 40     89%     30.08        
Sep 19 02:56 Calm 10 Clear CLR 43 40     89%     30.08        
Sep 19 01:56 Calm 10 Clear CLR 44 40     85%     30.08        
Sep 19 00:56 ESE 3 10 Clear CLR 45 40     82% 44   30.08        
Sep 18 23:56 ESE 3 10 Clear CLR 46 42     86% 45   30.07        
Sep 18 21:56 Calm 10 Clear CLR 48 40     73%     30.08        
Sep 18 20:56 NE 5 10 Clear CLR 54 42     64%     30.08        
Sep 18 18:56 NE 8 10 Clear CLR 60 41     49%     30.08        
Sep 18 17:56 NE 7 10 Clear CLR 64 42     45%     30.08        
Sep 18 15:56 ENE 10 10 Clear CLR 66 46     48%     30.08        
Sep 18 14:56 ESE 6 10 Clear CLR 65 46     50%     30.09        
Sep 18 12:56 NE 6 10 Clear CLR 63 46     54%     30.12        
Sep 18 11:56 6 10 Clear CLR 60 47     62%     30.13 30.18      
Sep 18 10:56 ENE 6 10 Clear CLR 58 47     67%     30.14        
Sep 18 08:56 NE 6 10 Clear CLR 53 44     71%     30.14        
Sep 18 07:56 Calm 10 Clear CLR 41 40     96%     30.14        
Sep 18 07:10 Calm 10 Clear CLR 37 36     93%     30.14        
Sep 18 07:03 Calm 2 Fog/Mist CLR 37 37     100%     30.14        
Sep 18 06:56 Calm 0.75 Fog/Mist CLR 36 35     96%     30.14        
Sep 18 05:56 Calm 10 Clear CLR 37 36     96%     30.13        
Sep 18 05:40 Calm 3 Fog/Mist CLR 37 36     93%     30.13        
Sep 18 05:32 Calm 1.5 Fog/Mist CLR 37 36     93%     30.12        
Sep 18 03:56 Calm 10 Clear CLR 38 37     97%     30.12        
Sep 18 02:56 Calm 10 Clear CLR 39 37     93%     30.12        
Sep 18 01:56 Calm 10 Clear CLR 41 39     93%     30.12        
Sep 18 00:56 Calm 10 Clear CLR 42 40     92%     30.12        
Sep 17 23:56 Calm 10 Clear CLR 48 41     77%     30.11        
Sep 17 21:56 ENE 10 10 Clear CLR 53 41     63%     30.11        
Sep 17 20:56 NE 8 10 Clear CLR 53 43     69%     30.11        
Sep 17 18:56 NNE 8 10 Clear CLR 58 43     57%     30.1        
Sep 17 17:56 ENE 8 10 Clear CLR 62 44     52%     30.09        
Sep 17 16:56 E 7 10 Clear CLR 64 44     48%     30.09 30.14      
Sep 17 15:56 7 10 Clear CLR 63 44     50%     30.1 30.15      
Sep 17 14:56 N 7 10 Mostly Clear FEW042 65 44     47%     30.11 30.16      
Sep 17 13:56 ESE 7 10 Mostly Clear FEW044 63 44     50%     30.12 30.17      
Sep 17 12:56 ENE 6 10 Mostly Clear FEW032 61 43     52%     30.14        
Sep 17 11:56 ENE 7 10 Mostly Cloudy BKN042 60 46     60%     30.15        
Sep 17 10:56 ENE 7 10 Cloudy OVC036 56 47     72%     30.16        
Sep 17 09:56 ENE 8 10 Cloudy OVC034 55 47     74%     30.15        
Sep 17 08:56 NE 8 10 Clear CLR 54 48     80%     30.15        
Sep 17 07:56 Calm 10 Clear CLR 44 44     100%     30.14        
Sep 17 07:47 Calm 6 Fog/Mist CLR 43 43     100%     30.14        
Notice The following observation data may not be complete
Sep 17 07:40 Calm 2.5 Fog/Mist CLR   39      %     30.14        
Notice The following observation data may not be complete
Sep 17 07:38 Calm 0.75 Fog/Mist CLR   39      %     30.14        
Notice The following observation data may not be complete
Sep 17 07:24 Calm 0.25 Fog CLR   39      %     30.14        
Sep 17 07:15 Calm 0.5 Fog CLR 43 41     93%     30.14        
Sep 17 07:13 Calm 1.25 Fog/Mist CLR 43 43     100%     30.14        
Notice The following observation data may not be complete
Sep 17 06:56 Calm 5 Fog/Mist CLR   39      %     30.13        
Notice The following observation data may not be complete
Sep 17 06:49 Calm 1.25 Fog/Mist CLR   39      %     30.13        
Notice The following observation data may not be complete
Sep 17 06:47 Calm 0.75 Fog/Mist CLR   39      %     30.13        
Notice The following observation data may not be complete
Sep 17 06:35 Calm 0.25 Fog CLR   39      %     30.13        
Notice The following observation data may not be complete
Sep 17 06:30 Calm 0.75 Fog/Mist CLR          %     30.13        
Notice The following observation data may not be complete
Sep 17 06:28 Calm 1.5 Fog/Mist CLR   39      %     30.13        
Sep 17 05:56 Calm 10 Clear CLR 46 45     96%     30.13        
Sep 17 03:56 NE 3 10 Mostly Cloudy SCT014 BKN036 49 47     93% 48   30.12        
Sep 17 02:56 NNE 5 10 Mostly Clear FEW032 49 47     93% 47   30.12        
Sep 17 01:27 NNE 6 10 Mostly Clear FEW017 48 48     100% 46   30.11        
Sep 17 00:56 Calm 10 Cloudy OVC015 45 43     93%     30.11        
Sep 17 00:33 Calm 10 Mostly Cloudy BKN015 45 45     100%     30.11        
Sep 16 23:56 Calm 10 Clear CLR 45 44     97%     30.1        
Sep 16 22:56 SE 3 10 Clear CLR 46 45     96% 45   30.09        
Sep 16 21:56 Calm 10 Clear CLR 49 47     93%     30.08 30.13      
Sep 16 20:56 WSW 5 10 Clear CLR 52 47     83%     30.05 30.11      
Sep 16 19:56 SW 7 10 Clear CLR 55 48     77%     30.03 30.09      
Sep 16 18:56 SSW 11 10 Clear CLR 59 48     67%     30.01 30.06      
Sep 16 17:56   10 Clear CLR 62 47     58%     29.99 30.03      
Sep 16 16:56   10 Clear CLR 64 49     58%     29.96 30.01     0
Sep 16 15:56   10 Clear CLR 64 49     58%     29.95 29.99      
Sep 16 14:56   10 Clear CLR 63 50     63%     29.94 29.98      
May 15 09:04 SW 8 10 Cloudy OVC007 55 52     88%     29.96        
May 14 08:56 Calm 10 Clear CLR 62 54     75%     29.97 30.01      
May 14 07:56 SSW 6 10 Clear CLR 58 54     87%     29.98        
Notice The following observation data may not be complete
May 13 20:56 Calm 10 Clear CLR   52      %     29.9        
May 13 12:56 NNE 7 10 Clear CLR 75 55     50%   75 29.95        
May 13 02:56 Calm 10 Clear CLR 47 44     90%     29.97 30.01      
May 12 17:56 ENE 9 10 Clear CLR 74 48     40%   73 29.99        
May 12 01:56 Calm 10 Clear CLR 45 45     100%     30.2        
May 12 00:56 Calm 10 Clear CLR 47 46     97%     30.2        
May 11 15:56 Calm 10 Mostly Cloudy BKN033 63 49     60%     30.23        
May 11 12:56 SSE 5 10 Cloudy BKN024 OVC028 57 49     74%     30.27 30.33      
May 11 07:56 Calm 10 Cloudy BKN019 OVC027 49 47     93%     30.27 30.32      
Jun 11 09:56 SSW 3 10 Cloudy OVC005 52 49     89%     30.06        
Jun 10 19:56 NNE 5 10 Clear CLR 62 45     53%     29.9 29.95      
Jun 10 15:56 WSW 3 10 Cloudy SCT046 OVC060 61 46     58%     29.86        
Notice The following observation data may not be complete
Jun 10 08:40   10 Cloudy OVC006          %              
Jun 10 02:15 WSW 7 10 Cloudy OVC004 48 46     93% 45   29.87        
Jun 09 16:56 SSW 8 10 Light Rain FEW026 58 46     65%     29.83 29.89 0   0
Jun 09 04:36 Calm 10 Cloudy SCT021 BKN028 OVC048 48 46     93%     29.93        
Jun 08 09:48 SSW 9 10 Light Rain BKN006 OVC030 55 54     94%     29.68   0    
Jun 08 04:56 SW 3 10 Light Rain SCT002 BKN010 OVC043 52 52     100%     29.64   0   0
Jun 07 09:56 Calm 10 Clear   67 49     52%     29.8        
Jun 06 02:56 E 5 10 Clear   54 43     66%     30.03        
Jun 05 16:56 ENE 9 10 Clear   71 39     31%   69 30.07